Погода в Куряеве

Россия / Тверская область     57°02′59″N   33°05′34″E
темп.,
°C
ветер,
м/с
пор.,
м/с
влажн.,
%
обл.,
%
осадки,
мм/ч
давл.,
гПа
погр.,
м
11 мая, вт
вт1100:00+7ююв227133 0.0 102729
03:00+6ююв2374100 0.0 102849
06:00+7юв2275100 0.0 102859
09:00+13юв355013 0.0 1028464
12:00+17вюв343715 0.0 10271038
15:00+19вюв343418 0.0 10261216
18:00+19вюв354463 0.0 10251007
21:00+11вюв36705 0.0 1025103
12 мая, ср
ср1200:00+9вюв28780 0.0 1026149
03:00+8юв24880 0.0 102673
06:00+10вюв24890 0.0 1026105
09:00+16вюв35704 0.0 1025519
12:00+21юв485028 0.0 10241780
15:00+20вюв3749100 0.0 10221880
18:00+17в41072100 0.4 1020512
21:00+15всв4138929 2.4 1018612
13 мая, чт
чт1300:00+14в5129599 1.1 1017786
03:00+12юв5109476 3.2 1017755
06:00+8юв3897100 0.0 1018437
09:00+12вюв5117317 0.0 1018883
12:00+15юв51061100 0.1 10161576
15:00+15вюв5972100 0.5 10151181
18:00+11юв3889100 0.4 1014455
21:00+10юв239691 0.4 101350
14 мая, пт
пт1400:00+8ююв279713 0.0 1014175
03:00+6ю26965 0.0 1014140
06:00+7ююв28935 0.0 1015221
09:00+12ююв476895 0.0 1015657
12:00+16ююв4653100 0.0 10141107
15:00+18юв475284 0.0 10131565
18:00+16вюв49685 0.0 1012619
21:00+12в31196100 1.0 1010333
15 мая, сб
сб1500:00+12вюв3109898 1.3 1009312
03:00+11вюв269943 1.7 1008167
06:00+11вюв259896 0.0 1008140
09:00+16ююв358348 0.1 1007495
12:00+20ю35674 1.9 10071152
15:00+21ююз455825 2.9 10061503
18:00+18ююз367820 1.6 1006819
21:00+13ююз259542 2.3 100688